When you browse on this site, cookies collect data to enhance your experience and personalize the content and advertising you see.
Visit our Privacy Policy to learn more. By continuing to use the site, you agree to this use of cookies and data.
  • In Hungary
  • List of Countries
  • For 7 days
  • Water Temperature
  • Weather Map
  • News
  • Weather Widgets
  • user-avatar
    Login

    Hourly Weather Homun

    Today, 7 April, Tuesday

    Time Temperature Precipitation Wind Pressure Humidity
    00:00 +26°C° 0 mm 2 mps 759 mmHg 78%
    01:00 +25°C° 0 mm 2 mps 759 mmHg 83%
    02:00 +24°C° 0 mm 2 mps 759 mmHg 89%
    03:00 +23°C° 0 mm 2 mps 759 mmHg 94%
    04:00 +23°C° 0 mm 2 mps 759 mmHg 96%
    05:00 +23°C° 0 mm 2 mps 760 mmHg 97%
    06:00 +23°C° 0 mm 2 mps 760 mmHg 98%
    07:00 +26°C° 0 mm 2 mps 761 mmHg 84%
    08:00 +29°C° 0 mm 3 mps 761 mmHg 71%
    09:00 +33°C° 0 mm 3 mps 761 mmHg 58%
    10:00 +36°C° 0 mm 3 mps 760 mmHg 47%
    11:00 +39°C° 0 mm 3 mps 760 mmHg 35%
    12:00 +43°C° 0 mm 3 mps 759 mmHg 24%
    13:00 +43°C° 0 mm 3 mps 758 mmHg 22%
    14:00 +44°C° 0 mm 3 mps 757 mmHg 20%
    15:00 +45°C° 0 mm 2 mps 757 mmHg 17%
    16:00 +42°C° 0 mm 2 mps 757 mmHg 22%
    17:00 +40°C° 0 mm 2 mps 757 mmHg 28%
    18:00 +37°C° 0 mm 2 mps 757 mmHg 33%
    19:00 +35°C° 0 mm 2 mps 757 mmHg 40%
    20:00 +32°C° 0 mm 2 mps 758 mmHg 48%
    21:00 +30°C° 0 mm 2 mps 759 mmHg 56%
    22:00 +28°C° 0 mm 2 mps 759 mmHg 64%
    23:00 +27°C° 0 mm 2 mps 759 mmHg 73%

    Tomorrow, 8 April, Wednesday

    Time Temperature Precipitation Wind Pressure Humidity
    00:00 +26°C° 0 mm 2 mps 758 mmHg 81%
    01:00 +25°C° 0 mm 2 mps 758 mmHg 86%
    02:00 +24°C° 0 mm 2 mps 758 mmHg 92%
    03:00 +23°C° 0 mm 2 mps 758 mmHg 97%
    04:00 +23°C° 0 mm 2 mps 758 mmHg 98%
    05:00 +23°C° 0 mm 2 mps 758 mmHg 98%
    06:00 +23°C° 0 mm 2 mps 758 mmHg 98%
    07:00 +26°C° 0 mm 2 mps 759 mmHg 85%
    08:00 +29°C° 0 mm 3 mps 759 mmHg 71%
    09:00 +33°C° 0 mm 3 mps 760 mmHg 57%
    10:00 +36°C° 0 mm 3 mps 759 mmHg 45%
    11:00 +39°C° 0 mm 3 mps 758 mmHg 33%
    12:00 +43°C° 0 mm 3 mps 757 mmHg 22%
    13:00 +44°C° 0 mm 3 mps 757 mmHg 20%
    14:00 +44°C° 0 mm 3 mps 756 mmHg 18%
    15:00 +45°C° 0 mm 3 mps 755 mmHg 16%
    16:00 +42°C° 0 mm 2 mps 755 mmHg 19%
    17:00 +40°C° 0 mm 2 mps 755 mmHg 23%
    18:00 +38°C° 0 mm 2 mps 755 mmHg 26%
    19:00 +36°C° 0 mm 2 mps 756 mmHg 33%
    20:00 +32°C° 0 mm 2 mps 757 mmHg 41%
    21:00 +30°C° 0 mm 2 mps 757 mmHg 48%
    22:00 +29°C° 0 mm 2 mps 757 mmHg 57%
    23:00 +27°C° 0 mm 2 mps 757 mmHg 66%

    Day after tomorrow, 9 April, Thursday

    Time Temperature Precipitation Wind Pressure Humidity
    00:00 +26°C° 0 mm 2 mps 757 mmHg 75%
    01:00 +25°C° 0 mm 2 mps 757 mmHg 80%
    02:00 +24°C° 0 mm 2 mps 756 mmHg 86%
    03:00 +23°C° 0 mm 2 mps 756 mmHg 92%
    04:00 +23°C° 0 mm 2 mps 756 mmHg 93%
    05:00 +23°C° 0 mm 2 mps 756 mmHg 95%
    06:00 +21°C° 0 mm 2 mps 757 mmHg 97%
    07:00 +26°C° 0 mm 3 mps 757 mmHg 81%
    08:00 +29°C° 0 mm 3 mps 757 mmHg 65%
    09:00 +34°C° 0 mm 3 mps 758 mmHg 49%
    10:00 +37°C° 0 mm 3 mps 757 mmHg 40%
    11:00 +40°C° 0 mm 3 mps 756 mmHg 31%
    12:00 +44°C° 0 mm 3 mps 756 mmHg 21%
    13:00 +44°C° 0 mm 3 mps 755 mmHg 19%
    14:00 +45°C° 0 mm 3 mps 754 mmHg 17%
    15:00 +46°C° 0 mm 3 mps 753 mmHg 14%
    16:00 +43°C° 0 mm 2 mps 754 mmHg 18%
    17:00 +41°C° 0 mm 2 mps 754 mmHg 21%
    18:00 +39°C° 0 mm 2 mps 754 mmHg 25%
    19:00 +37°C° 0 mm 2 mps 754 mmHg 33%
    20:00 +34°C° 0 mm 2 mps 755 mmHg 41%
    21:00 +31°C° 0 mm 3 mps 755 mmHg 50%
    22:00 +29°C° 0 mm 2 mps 755 mmHg 56%
    23:00 +28°C° 0 mm 2 mps 755 mmHg 63%

    10 April, Friday

    Time Temperature Precipitation Wind Pressure Humidity
    00:00 +27°C° 0 mm 2 mps 755 mmHg 70%
    01:00 +26°C° 0 mm 2 mps 755 mmHg 77%
    02:00 +25°C° 0 mm 2 mps 755 mmHg 84%
    03:00 +24°C° 0 mm 2 mps 755 mmHg 91%
    04:00 +23°C° 0 mm 2 mps 755 mmHg 93%
    05:00 +23°C° 0 mm 2 mps 755 mmHg 95%
    06:00 +23°C° 0 mm 2 mps 756 mmHg 96%
    07:00 +26°C° 0 mm 3 mps 756 mmHg 81%
    08:00 +30°C° 0 mm 3 mps 756 mmHg 66%
    09:00 +34°C° 0 mm 3 mps 757 mmHg 52%
    10:00 +37°C° 0 mm 4 mps 756 mmHg 41%
    11:00 +40°C° 0 mm 4 mps 756 mmHg 31%
    12:00 +43°C° 0 mm 4 mps 755 mmHg 21%
    13:00 +44°C° 0 mm 3 mps 754 mmHg 18%
    14:00 +45°C° 0 mm 3 mps 754 mmHg 16%
    15:00 +46°C° 0 mm 2 mps 753 mmHg 13%
    16:00 +43°C° 0 mm 3 mps 753 mmHg 22%
    17:00 +38°C° 0 mm 3 mps 753 mmHg 31%
    18:00 +35°C° 0 mm 3 mps 754 mmHg 40%
    19:00 +33°C° 0 mm 3 mps 754 mmHg 51%
    20:00 +30°C° 0 mm 2 mps 755 mmHg 63%
    21:00 +27°C° 0 mm 2 mps 756 mmHg 74%
    22:00 +27°C° 0 mm 2 mps 756 mmHg 75%
    23:00 +26°C° 0 mm 2 mps 756 mmHg 75%

    11 April, Saturday

    Time Temperature Precipitation Wind Pressure Humidity
    00:00 +26°C° 0 mm 2 mps 756 mmHg 76%
    01:00 +25°C° 0 mm 2 mps 755 mmHg 83%
    02:00 +24°C° 0 mm 2 mps 755 mmHg 90%
    03:00 +23°C° 0 mm 2 mps 755 mmHg 97%
    04:00 +22°C° 0 mm 3 mps 755 mmHg 97%
    05:00 +24°C° 0 mm 3 mps 755 mmHg 97%
    06:00 +24°C° 0 mm 3 mps 756 mmHg 96%
    07:00 +27°C° 0 mm 4 mps 756 mmHg 82%
    08:00 +30°C° 0 mm 4 mps 756 mmHg 67%
    09:00 +34°C° 0 mm 5 mps 756 mmHg 52%
    10:00 +37°C° 0 mm 5 mps 755 mmHg 41%
    11:00 +40°C° 0 mm 5 mps 755 mmHg 31%
    12:00 +43°C° 0 mm 5 mps 754 mmHg 20%
    13:00 +45°C° 0 mm 5 mps 753 mmHg 19%
    14:00 +46°C° 0 mm 5 mps 752 mmHg 18%
    15:00 +45°C° 0 mm 4 mps 752 mmHg 17%
    16:00 +43°C° 0 mm 4 mps 752 mmHg 20%
    17:00 +42°C° 0 mm 4 mps 752 mmHg 23%
    18:00 +40°C° 0 mm 4 mps 752 mmHg 26%
    19:00 +36°C° 0 mm 4 mps 753 mmHg 35%
    20:00 +34°C° 0 mm 4 mps 753 mmHg 45%
    21:00 +30°C° 0 mm 5 mps 754 mmHg 55%
    22:00 +29°C° 0 mm 4 mps 754 mmHg 64%
    23:00 +28°C° 0 mm 4 mps 754 mmHg 74%

    12 April, Sunday

    Time Temperature Precipitation Wind Pressure Humidity
    00:00 +26°C° 0 mm 3 mps 754 mmHg 83%
    01:00 +26°C° 0 mm 4 mps 753 mmHg 84%
    02:00 +26°C° 0 mm 4 mps 753 mmHg 86%
    03:00 +26°C° 0 mm 4 mps 753 mmHg 87%
    04:00 +26°C° 0 mm 4 mps 753 mmHg 86%
    05:00 +26°C° 0 mm 4 mps 753 mmHg 85%
    06:00 +27°C° 0 mm 4 mps 753 mmHg 84%
    07:00 +29°C° 0 mm 4 mps 753 mmHg 73%
    08:00 +33°C° 0 mm 4 mps 754 mmHg 62%
    09:00 +36°C° 0 mm 5 mps 754 mmHg 52%
    10:00 +38°C° 0 mm 4 mps 753 mmHg 43%
    11:00 +42°C° 0 mm 4 mps 753 mmHg 34%
    12:00 +45°C° 0 mm 3 mps 753 mmHg 26%
    13:00 +46°C° 0 mm 3 mps 753 mmHg 23%
    14:00 +47°C° 0 mm 2 mps 752 mmHg 20%
    15:00 +47°C° 0 mm 1 mps 752 mmHg 18%
    16:00 +43°C° 0 mm 2 mps 752 mmHg 32%
    17:00 +38°C° 0 mm 3 mps 752 mmHg 46%
    18:00 +34°C° 0 mm 4 mps 753 mmHg 60%
    19:00 +31°C° 0.1 mm 3 mps 754 mmHg 67%
    20:00 +29°C° 0.1 mm 2 mps 755 mmHg 75%
    21:00 +28°C° 0.1 mm 1 mps 756 mmHg 83%
    22:00 +27°C° 0.1 mm 1 mps 756 mmHg 86%
    23:00 +27°C° 0.1 mm 1 mps 756 mmHg 89%
    Show more